TimeEDT,TemperatureF,Dew PointF,Humidity,Sea Level PressureIn,VisibilityMPH,Wind Direction,Wind SpeedMPH,Gust SpeedMPH,PrecipitationIn,Events,Conditions,WindDirDegrees,DateUTC
12:51 AM,50.0,44.1,80,29.55,10.0,SSW,3.5,-,N/A,,Partly Cloudy,200,2012-11-01 04:51:00
1:51 AM,48.9,42.1,77,29.55,10.0,SSW,3.5,-,N/A,,Clear,210,2012-11-01 05:51:00
2:51 AM,48.0,42.1,80,29.54,10.0,SSW,6.9,-,N/A,,Clear,210,2012-11-01 06:51:00
3:51 AM,46.9,41.0,80,29.52,10.0,Calm,Calm,-,N/A,,Clear,0,2012-11-01 07:51:00
4:51 AM,46.0,41.0,83,29.54,10.0,SSW,4.6,-,N/A,,Clear,200,2012-11-01 08:51:00
5:51 AM,46.9,41.0,80,29.54,10.0,South,3.5,-,N/A,,Overcast,170,2012-11-01 09:51:00
6:51 AM,48.0,39.9,74,29.54,10.0,SW,3.5,-,N/A,,Overcast,220,2012-11-01 10:51:00
7:51 AM,48.9,39.9,71,29.55,10.0,SSW,3.5,-,N/A,,Overcast,200,2012-11-01 11:51:00
8:51 AM,48.9,41.0,74,29.55,10.0,WSW,3.5,-,N/A,,Overcast,240,2012-11-01 12:51:00
9:03 AM,48.2,39.2,71,29.55,10.0,SW,3.5,-,N/A,,Overcast,230,2012-11-01 13:03:00
9:51 AM,48.9,39.9,71,29.55,10.0,WSW,3.5,-,N/A,,Overcast,240,2012-11-01 13:51:00
10:51 AM,51.1,39.9,66,29.55,10.0,SSW,4.6,-,N/A,,Scattered Clouds,210,2012-11-01 14:51:00
11:51 AM,53.1,39.9,61,29.53,10.0,SSE,8.1,-,N/A,,Scattered Clouds,160,2012-11-01 15:51:00
12:51 PM,53.1,41.0,64,29.51,10.0,South,8.1,-,N/A,,Scattered Clouds,170,2012-11-01 16:51:00
1:51 PM,54.0,42.1,64,29.49,10.0,SSE,10.4,-,N/A,,Scattered Clouds,160,2012-11-01 17:51:00
2:51 PM,53.1,42.1,66,29.49,10.0,South,12.7,-,N/A,,Scattered Clouds,180,2012-11-01 18:51:00
3:51 PM,53.1,41.0,64,29.49,10.0,South,9.2,-,N/A,,Scattered Clouds,170,2012-11-01 19:51:00
4:51 PM,53.1,42.1,66,29.49,10.0,SW,15.0,-,N/A,,Scattered Clouds,230,2012-11-01 20:51:00
5:51 PM,52.0,39.0,61,29.50,10.0,SW,6.9,-,N/A,,Mostly Cloudy,230,2012-11-01 21:51:00
6:51 PM,48.9,39.0,69,29.52,10.0,WSW,3.5,-,N/A,,Partly Cloudy,240,2012-11-01 22:51:00
7:51 PM,48.0,37.9,68,29.52,10.0,WSW,4.6,-,N/A,,Scattered Clouds,250,2012-11-01 23:51:00
8:51 PM,46.9,39.0,74,29.52,10.0,Calm,Calm,-,N/A,,Scattered Clouds,0,2012-11-02 00:51:00
9:51 PM,48.0,39.0,71,29.52,10.0,WSW,6.9,-,N/A,,Overcast,240,2012-11-02 01:51:00
10:51 PM,48.0,39.0,71,29.52,10.0,WSW,4.6,-,N/A,,Overcast,240,2012-11-02 02:51:00
11:51 PM,48.2,39.2,71,29.51,10.0,SW,4.6,-,N/A,,Overcast,230,2012-11-02 03:51:00